Location: Melbourne
(37.8666°S, 145.1333°E)
Time: 04:37:01
(UTC+10:00)

Amateur Radio Satellites - All Passes

Search period start: 27 August 2016 04:07
Search period end: 28 August 2016 04:07
Location: Melbourne, 37.8666°S, 145.1333°E

Satellite Date Start Highest point End Downlink Frequencies (MHz)
Time Altitude Azimuth
ITUPSAT 1 27 Aug 04:08:03 04:11:18 18° 245° (WSW) 04:14:31 437.325
ITAMSAT 1 27 Aug 04:08:11 04:09:43 11° 270° (W) 04:11:14 435.822/435.867
HORYU 2 27 Aug 04:11:25 04:15:40 45° 108° (ESE) 04:19:59 437.375
AO-85 27 Aug 04:14:14 04:16:08 12° 287° (WNW) 04:18:04 145.980
Cosmos 2491 27 Aug 04:17:47 04:21:53 14° 104° (ESE) 04:25:59 435.465 / 435.565
ISS 27 Aug 04:23:10 04:26:15 35° 314° (NW) 04:29:18 145.825
STARS 27 Aug 04:32:59 04:37:23 54° 79° (E) 04:41:44 437.465
YUBILEINY 27 Aug 04:34:40 04:42:51 39° 106° (ESE) 04:50:57 435.215
Cubesat XI-IV 27 Aug 04:42:51 04:46:41 20° 116° (ESE) 04:50:33 437.490
CUTE-I 27 Aug 04:54:33 04:58:56 26° 114° (ESE) 05:03:21 437.470
NOAA 15 27 Aug 05:00:12 05:05:04 37° 111° (ESE) 05:09:58 137.62
CUBESAT XI-V 27 Aug 05:03:37 05:07:58 37° 82° (E) 05:12:14 437.345
AO-7 27 Aug 05:04:20 05:09:14 17° 271° (W) 05:14:10 29.400- 29.500
GOMX 1 27 Aug 05:18:07 05:22:17 33° 108° (ESE) 05:26:16 467.674
LilacSat-2 27 Aug 05:19:38 05:23:07 34° 108° (ESE) 05:26:39 437.200
NOAA 18 27 Aug 05:21:17 05:26:26 42° 111° (ESE) 05:31:38 137.9125
MOZHAYETS 4 27 Aug 05:25:49 05:28:46 17° 245° (WSW) 05:31:41
KKS-1 27 Aug 05:30:27 05:33:32 18° 246° (WSW) 05:36:34 437.445
DOVE 4 27 Aug 05:32:55 05:36:01 19° 112° (ESE) 05:39:04 437.250
BRITE-PL 27 Aug 05:33:58 05:39:06 68° 281° (W) 05:43:53 437.365/2234.400
BEESAT 3 27 Aug 05:34:08 05:36:22 15° 134° (SE) 05:38:36 437.485
Cosmos 2504 27 Aug 05:42:33 05:50:48 41° 106° (ESE) 05:59:01 435.465 / 435.565
HORYU 2 27 Aug 05:49:51 05:52:26 15° 272° (W) 05:55:02 437.375
Cosmos 2491 27 Aug 06:08:22 06:17:14 82° 85° (E) 06:26:08 435.465 / 435.565
STARS 27 Aug 06:10:59 06:13:14 14° 244° (WSW) 06:15:30 437.465
Cubesat XI-IV 27 Aug 06:21:08 06:26:20 50° 280° (W) 06:31:37 437.490
CINEMA 3 27 Aug 06:23:53 06:26:44 18° 113° (ESE) 06:29:37 145.822/145.860
YUBILEINY 27 Aug 06:31:28 06:39:36 43° 267° (W) 06:47:44 435.215
CUTE-I 27 Aug 06:33:47 06:38:44 38° 278° (W) 06:43:47 437.470
NOAA 15 27 Aug 06:40:30 06:44:53 25° 275° (W) 06:49:17 137.62
HO-68 27 Aug 06:40:46 06:47:23 42° 114° (ESE) 06:54:03 435.675
CUBESAT XI-V 27 Aug 06:41:38 06:45:03 20° 247° (WSW) 06:48:25 437.345
BEESAT 2 27 Aug 06:49:29 06:53:18 43° 125° (SE) 06:57:04 435.950
CUBEBUG 2 27 Aug 06:53:26 06:54:10 10° 117° (ESE) 06:54:53 437.445
LilacSat-2 27 Aug 06:55:21 06:57:31 15° 272° (W) 06:59:43 437.200
GOMX 1 27 Aug 06:56:58 07:00:24 20° 275° (W) 07:03:44 467.674
NOAA 18 27 Aug 07:02:54 07:07:12 23° 275° (W) 07:11:34 137.9125
DOVE 4 27 Aug 07:09:37 07:13:31 32° 277° (W) 07:17:21 437.250
BEESAT 3 27 Aug 07:10:30 07:14:19 50° 296° (WNW) 07:18:05 437.485
AIST 1 27 Aug 07:12:21 07:14:29 13° 109° (ESE) 07:16:37
SEEDS 27 Aug 07:12:24 07:16:17 34° 108° (ESE) 07:20:14 437.485
STRAND 1 27 Aug 07:26:45 07:31:56 60° 79° (E) 07:37:01 437.568
CANX-2 27 Aug 07:30:36 07:34:55 85° 282° (WNW) 07:39:20 2200.000
Cosmos 2504 27 Aug 07:35:55 07:44:09 44° 268° (W) 07:52:21 435.465 / 435.565
CUTE 1.7 + AOD 2 27 Aug 07:37:00 07:41:19 83° 282° (WNW) 07:45:42 437.475
AAUSAT CUBESAT 2 27 Aug 07:47:17 07:51:20 46° 106° (ESE) 07:55:26 437.432
COMPASS 1 27 Aug 07:53:47 07:58:01 73° 105° (ESE) 08:02:18 437.405
CINEMA 3 27 Aug 07:59:50 08:03:37 33° 277° (W) 08:07:28 145.822/145.860
DELFI C3 27 Aug 08:05:33 08:06:43 11° 116° (ESE) 08:07:53 145.870
Cosmos 2491 27 Aug 08:09:04 08:15:07 20° 245° (WSW) 08:21:13 435.465 / 435.565
Oscar 11 27 Aug 08:17:57 08:22:03 41° 108° (ESE) 08:26:13 145.826/435.025
FUNcube-1 27 Aug 08:23:24 08:27:25 43° 107° (ESE) 08:31:35 145.935
CUBEBUG 2 27 Aug 08:25:57 08:30:08 66° 281° (W) 08:34:29 437.445
UWE-3 27 Aug 08:26:18 08:30:32 81° 105° (ESE) 08:34:57 435.000/436.395/437.385
BEESAT 2 27 Aug 08:28:39 08:30:44 14° 289° (WNW) 08:32:47 435.950
HO-68 27 Aug 08:28:40 08:35:05 35° 277° (W) 08:41:36 435.675
PRISM 27 Aug 08:34:00 08:37:40 30° 83° (E) 08:41:16 437.425
PCSat 27 Aug 08:40:55 08:46:10 46° 122° (ESE) 08:51:22 145.827
ZACube-1 27 Aug 08:43:52 08:48:07 81° 104° (ESE) 08:52:32 437.345
AIST 1 27 Aug 08:48:12 08:52:20 45° 273° (W) 08:56:26
SEEDS 27 Aug 08:49:05 08:52:04 18° 273° (W) 08:55:04 437.485
AIST 2 27 Aug 08:49:43 08:53:32 34° 127° (SE) 08:57:17 435.215
GONETS M04 27 Aug 08:55:00 08:55:42 10° 122° (ESE) 08:56:23
STRAND 1 27 Aug 09:07:23 09:10:33 16° 243° (WSW) 09:13:43 437.568
AAUSAT CUBESAT 2 27 Aug 09:25:02 09:27:02 13° 272° (W) 09:29:05 437.432
ANTELSAT 27 Aug 09:36:35 09:39:46 18° 87° (E) 09:42:55 437.575/2403.000
DELFI C3 27 Aug 09:37:01 09:41:02 56° 280° (W) 09:45:04 145.870
HUMSAT D 27 Aug 09:41:26 09:45:39 73° 105° (ESE) 09:49:58 437.325/437.525
CUSAT 1 27 Aug 09:51:33 09:57:14 22° 93° (E) 10:02:30 437.405
Oscar 11 27 Aug 09:55:38 09:58:21 16° 272° (W) 10:01:05 145.826/435.025
FUNcube-1 27 Aug 10:01:29 10:03:54 15° 271° (W) 10:06:20 145.935
AUBIESAT-1 27 Aug 10:02:09 10:05:12 34° 112° (ESE) 10:08:18 437.475
ESTCUBE 1 27 Aug 10:03:09 10:06:35 21° 113° (ESE) 10:10:02 437.505/2401.250
M-CUBED/EXP-1 PRIME 27 Aug 10:06:36 10:09:51 51° 110° (ESE) 10:13:06 437.505
TIGRISAT 27 Aug 10:06:57 10:11:18 35° 83° (E) 10:15:37 435.000
PRISM 27 Aug 10:09:45 10:12:44 19° 247° (WSW) 10:15:42 437.425
AISAT 27 Aug 10:17:17 10:20:04 17° 114° (ESE) 10:22:51 437.250
PCSat 27 Aug 10:25:03 10:29:12 23° 286° (WNW) 10:33:21 145.827
AIST 2 27 Aug 10:28:47 10:31:45 19° 291° (WNW) 10:34:41 435.215
UKube-1 27 Aug 10:33:58 10:35:44 12° 117° (ESE) 10:37:31 .
DANDE 27 Aug 10:34:47 10:40:59 24° 96° (E) 10:47:09 436.750
UNISAT 6 27 Aug 10:34:52 10:39:39 76° 78° (ENE) 10:44:23 437.425
NANOSAT C BR1 27 Aug 10:43:14 10:43:41 10° 90° (E) 10:44:09 145.865
Cosmos 2499 27 Aug 10:43:35 10:52:15 50° 103° (ESE) 11:00:41 435.465 / 435.565
GONETS M04 27 Aug 10:45:51 10:54:32 62° 101° (E) 11:03:08
50 SAT 27 Aug 10:48:09 10:51:24 29° 108° (ESE) 10:54:43 437.505
RS-15 27 Aug 10:54:09 10:57:41 12° 84° (E) 11:01:11 29.354- 29.394
VELOX 1 27 Aug 11:03:00 11:07:16 49° 107° (ESE) 11:11:36 145.980
SO-50 27 Aug 11:06:29 11:10:40 44° 65° (ENE) 11:14:57 436.795
O/OREOS (USA 219) 27 Aug 11:06:43 11:10:44 30° 118° (ESE) 11:14:42 437.305
CUBEBUG 1 27 Aug 11:08:08 11:12:29 69° 105° (ESE) 11:16:53 437.445
ANTELSAT 27 Aug 11:12:07 11:16:38 44° 252° (WSW) 11:21:07 437.575/2403.000
QB50P1 27 Aug 11:23:28 11:27:26 34° 83° (E) 11:31:21 145.935-145.965
DX 1 27 Aug 11:24:15 11:28:32 58° 106° (ESE) 11:32:53 434.975-435.025
BUGSAT 1 27 Aug 11:28:36 11:30:41 13° 88° (E) 11:32:46 437.445
CUSAT 1 27 Aug 11:30:46 11:38:46 72° 260° (W) 11:45:51 437.405
SPROUT 27 Aug 11:31:22 11:35:29 48° 107° (ESE) 11:39:40 437.525
POPSAT HIP 1 27 Aug 11:33:13 11:37:22 43° 81° (E) 11:41:29 437.405
ESTCUBE 1 27 Aug 11:38:58 11:43:08 35° 278° (W) 11:47:22 437.505/2401.250
AUBIESAT-1 27 Aug 11:39:12 11:39:52 10° 278° (W) 11:40:32 437.475
TIGRISAT 27 Aug 11:44:04 11:47:45 23° 248° (WSW) 11:51:24 435.000
JAS-2 27 Aug 11:46:18 11:51:35 30° 86° (E) 11:56:22 435.910
AISAT 27 Aug 11:51:56 11:56:09 43° 279° (W) 12:00:25 437.250
TISAT 1 27 Aug 11:55:54 11:58:54 19° 113° (ESE) 12:01:55 437.305
DUCHIFAT 1 27 Aug 12:02:12 12:06:32 86° 77° (ENE) 12:10:50 145.980
QB50P2 27 Aug 12:03:12 12:07:33 76° 256° (WSW) 12:11:52 145.880/145.840
POLYITAN 1 27 Aug 12:05:42 12:10:04 75° 256° (WSW) 12:14:23 437.675
UKube-1 27 Aug 12:06:57 12:11:14 58° 281° (W) 12:15:34 .
UNISAT 6 27 Aug 12:14:17 12:15:40 11° 242° (WSW) 12:17:04 437.425
DANDE 27 Aug 12:14:45 12:23:04 75° 260° (W) 12:31:19 436.750
NANOSAT C BR1 27 Aug 12:15:30 12:19:47 61° 255° (WSW) 12:24:01 145.865
50 SAT 27 Aug 12:22:41 12:25:01 16° 274° (W) 12:27:23 437.505
SWISSCUBE 27 Aug 12:33:05 12:35:01 12° 118° (ESE) 12:36:58 437.505
Cosmos 2499 27 Aug 12:37:13 12:45:00 35° 265° (W) 12:52:39 435.465 / 435.565
VELOX 1 27 Aug 12:41:42 12:43:59 14° 272° (W) 12:46:16 145.980
GONETS M04 27 Aug 12:43:51 12:50:36 26° 262° (W) 12:57:22
O/OREOS (USA 219) 27 Aug 12:46:23 12:49:57 23° 282° (WNW) 12:53:29 437.305
SO-50 27 Aug 12:48:02 12:51:21 20° 227° (SW) 12:54:42 436.795
BEESAT 27 Aug 12:49:10 12:52:08 16° 116° (ESE) 12:55:07 436.000
RS-15 27 Aug 12:56:24 13:07:56 67° 66° (ENE) 13:18:57 29.354- 29.394
QB50P1 27 Aug 12:59:51 13:02:56 19° 247° (WSW) 13:06:01 145.935-145.965
BUGSAT 1 27 Aug 13:02:14 13:06:15 45° 253° (WSW) 13:10:16 437.445
DX 1 27 Aug 13:03:42 13:05:04 11° 271° (W) 13:06:26 434.975-435.025
SPROUT 27 Aug 13:09:45 13:11:41 13° 272° (W) 13:13:38 437.525
POPSAT HIP 1 27 Aug 13:10:10 13:12:45 16° 246° (WSW) 13:15:20 437.405
CUSAT 1 27 Aug 13:18:24 13:21:35 13° 245° (WSW) 13:24:38 437.405
Oscar 19 27 Aug 13:27:31 13:32:33 49° 80° (E) 13:37:32 437.125/150
TISAT 1 27 Aug 13:30:32 13:34:18 32° 277° (W) 13:38:07 437.305
JAS-2 27 Aug 13:31:07 13:36:42 35° 246° (WSW) 13:41:42 435.910
ITUPSAT 1 27 Aug 13:33:56 13:38:31 45° 108° (ESE) 13:43:10 437.325
PHONESAT 2.4 27 Aug 13:35:02 13:37:52 35° 27° (NNE) 13:40:43 2401.200-2431.200
DANDE 27 Aug 14:02:23 14:07:02 16° 243° (WSW) 14:11:37 436.750
SWISSCUBE 27 Aug 14:07:21 14:12:09 72° 282° (WNW) 14:17:02 437.505
BEESAT 27 Aug 14:24:46 14:29:27 52° 280° (W) 14:34:13 436.000
Gurwin Techsat 1B 27 Aug 14:29:19 14:34:44 88° 72° (ENE) 14:40:05 435.225
ITAMSAT 1 27 Aug 14:39:35 14:44:18 32° 83° (E) 14:48:57 435.822/435.867
MOZHAYETS 4 27 Aug 14:47:24 14:51:40 37° 109° (ESE) 14:56:00
KKS-1 27 Aug 14:49:25 14:53:17 30° 111° (ESE) 14:57:12 437.445
Oscar 19 27 Aug 15:07:52 15:11:27 19° 244° (WSW) 15:15:01 437.125/150
RS-15 27 Aug 15:10:36 15:21:00 38° 223° (SW) 15:31:06 29.354- 29.394
PHONESAT 2.4 27 Aug 15:11:06 15:14:09 62° 191° (S) 15:17:14 2401.200-2431.200
AO-7 27 Aug 15:11:25 15:18:53 34° 82° (E) 15:26:13 29.400- 29.500
ITUPSAT 1 27 Aug 15:13:19 15:16:33 18° 273° (W) 15:19:48 437.325
STARS 27 Aug 15:27:47 15:31:50 37° 109° (ESE) 15:35:56 437.465
CUBESAT XI-V 27 Aug 16:05:02 16:09:11 31° 110° (ESE) 16:13:20 437.345
Gurwin Techsat 1B 27 Aug 16:12:03 16:13:52 12° 240° (WSW) 16:15:41 435.225
ITAMSAT 1 27 Aug 16:19:06 16:23:38 30° 247° (WSW) 16:28:08 435.822/435.867
Cosmos 2491 27 Aug 16:21:34 16:29:36 38° 107° (ESE) 16:37:31 435.465 / 435.565
MOZHAYETS 4 27 Aug 16:25:29 16:28:55 20° 274° (W) 16:32:24
KKS-1 27 Aug 16:26:18 16:29:50 23° 275° (W) 16:33:23 437.445
AO-85 27 Aug 16:44:52 16:48:29 36° 66° (ENE) 16:52:20 145.980
PHONESAT 2.4 27 Aug 16:47:42 16:50:44 52° 174° (S) 16:53:46 2401.200-2431.200
AO-7 27 Aug 17:03:44 17:11:48 52° 245° (WSW) 17:19:49 29.400- 29.500
STARS 27 Aug 17:05:21 17:08:18 18° 274° (W) 17:11:17 437.465
CUTE-I 27 Aug 17:15:37 17:16:59 11° 91° (E) 17:18:21 437.470
NOAA 15 27 Aug 17:18:23 17:21:30 16° 88° (E) 17:24:34 137.62
RS-15 27 Aug 17:31:44 17:37:58 16° 190° (S) 17:44:08 29.354- 29.394
YUBILEINY 27 Aug 17:33:11 17:41:21 48° 92° (E) 17:49:36 435.215
HORYU 2 27 Aug 17:40:14 17:44:47 69° 255° (WSW) 17:49:17 437.375
BRITE-PL 27 Aug 17:40:40 17:44:38 39° 82° (E) 17:48:39 437.365/2234.400
CUBESAT XI-V 27 Aug 17:42:38 17:46:31 25° 275° (W) 17:50:26 437.345
NOAA 18 27 Aug 17:45:49 17:49:57 21° 86° (E) 17:54:03 137.9125
Cosmos 2491 27 Aug 18:18:18 18:26:28 45° 268° (W) 18:34:33 435.465 / 435.565
Cosmos 2504 27 Aug 18:19:38 18:26:00 31° 96° (E) 18:32:48 435.465 / 435.565
PHONESAT 2.4 27 Aug 18:24:07 18:27:09 57° 338° (NNW) 18:30:10 2401.200-2431.200
AO-85 27 Aug 18:26:05 18:29:04 19° 227° (SW) 18:32:12 145.980
LilacSat-2 27 Aug 18:28:27 18:32:25 68° 79° (E) 18:36:20 437.200
Cubesat XI-IV 27 Aug 18:39:59 18:45:28 77° 78° (ENE) 18:50:52 437.490
STRAND 1 27 Aug 18:40:37 18:45:45 71° 106° (ESE) 18:50:58 437.568
CUTE-I 27 Aug 18:52:09 18:57:38 82° 255° (WSW) 19:03:02 437.470
NOAA 15 27 Aug 18:56:24 19:01:38 59° 253° (WSW) 19:06:47 137.62
GOMX 1 27 Aug 18:58:33 19:02:49 62° 255° (WSW) 19:07:15 467.674
AO-7 27 Aug 19:01:17 19:02:36 10° 225° (SW) 19:03:55 29.400- 29.500
DOVE 4 27 Aug 19:08:48 19:13:17 71° 78° (ENE) 19:17:59 437.250
CANX-2 27 Aug 19:18:26 19:21:33 19° 87° (E) 19:24:37 2200.000
BRITE-PL 27 Aug 19:20:23 19:22:50 15° 247° (WSW) 19:25:17 437.365/2234.400
PRISM 27 Aug 19:22:13 19:25:08 19° 113° (ESE) 19:28:04 437.425
CUTE 1.7 + AOD 2 27 Aug 19:24:41 19:27:49 19° 87° (E) 19:30:55 437.475
NOAA 18 27 Aug 19:25:26 19:30:49 49° 250° (WSW) 19:36:10 137.9125
ISS 27 Aug 19:26:11 19:28:21 16° 51° (NE) 19:30:31 145.825
YUBILEINY 27 Aug 19:30:32 19:38:17 35° 253° (WSW) 19:46:08 435.215
SO-50 27 Aug 19:39:15 19:43:19 27° 130° (SE) 19:47:26 436.795
COMPASS 1 27 Aug 19:40:13 19:42:16 13° 89° (E) 19:44:18 437.405
RS-15 27 Aug 19:48:27 19:56:26 22° 153° (SSE) 20:04:21 29.354- 29.394
CINEMA 3 27 Aug 19:54:56 19:59:37 61° 79° (E) 20:04:27 145.822/145.860
HO-68 27 Aug 19:57:22 20:04:24 51° 79° (E) 20:11:22 435.675
PHONESAT 2.4 27 Aug 20:02:14 20:03:04 11° 324° (NW) 20:03:55 2401.200-2431.200
Cosmos 2504 27 Aug 20:11:48 20:18:58 47° 256° (WSW) 20:26:45 435.465 / 435.565
FUNcube-1 27 Aug 20:16:01 20:16:45 10° 91° (E) 20:17:30 145.935
UWE-3 27 Aug 20:18:15 20:21:46 20° 87° (E) 20:25:16 435.000/436.395/437.385
CUBEBUG 2 27 Aug 20:18:25 20:22:37 31° 84° (E) 20:26:50 437.445
Cubesat XI-IV 27 Aug 20:22:08 20:24:49 14° 241° (WSW) 20:27:29 437.490
STRAND 1 27 Aug 20:23:20 20:25:24 12° 270° (W) 20:27:30 437.568
SEEDS 27 Aug 20:33:11 20:37:31 87° 77° (ENE) 20:41:45 437.485
ZACube-1 27 Aug 20:34:43 20:38:05 19° 87° (E) 20:41:24 437.345
ANTELSAT 27 Aug 20:35:12 20:36:57 12° 117° (ESE) 20:38:43 437.575/2403.000
CUTE-I 27 Aug 20:35:49 20:36:46 10° 239° (WSW) 20:37:41 437.470
BEESAT 2 27 Aug 20:42:05 20:43:27 11° 72° (ENE) 20:44:49 435.950
DOVE 4 27 Aug 20:49:27 20:50:27 11° 244° (WSW) 20:51:28 437.250
CANX-2 27 Aug 20:53:33 20:57:27 33° 251° (WSW) 21:01:17 2200.000
PRISM 27 Aug 20:56:23 21:00:10 33° 278° (W) 21:04:00 437.425
BEESAT 3 27 Aug 20:59:06 21:02:46 38° 65° (ENE) 21:06:27 437.485
CUTE 1.7 + AOD 2 27 Aug 20:59:50 21:03:42 32° 251° (WSW) 21:07:31 437.475
ISS 27 Aug 21:01:21 21:04:32 45° 215° (SW) 21:07:46 145.825
TIGRISAT 27 Aug 21:04:20 21:07:49 24° 112° (ESE) 21:11:24 435.000
AAUSAT CUBESAT 2 27 Aug 21:06:31 21:10:44 72° 255° (WSW) 21:14:52 437.432
COMPASS 1 27 Aug 21:14:00 21:18:04 45° 254° (WSW) 21:22:03 437.405
AIST 1 27 Aug 21:15:00 21:19:20 72° 263° (W) 21:23:43
DELFI C3 27 Aug 21:17:06 21:20:08 20° 86° (E) 21:23:07 145.870
SO-50 27 Aug 21:19:31 21:23:49 34° 294° (WNW) 21:28:09 436.795
HUMSAT D 27 Aug 21:28:17 21:30:34 14° 89° (E) 21:32:50 437.325/437.525
UNISAT 6 27 Aug 21:31:50 21:36:04 51° 107° (ESE) 21:40:26 437.425
CINEMA 3 27 Aug 21:33:53 21:36:15 14° 245° (WSW) 21:38:40 145.822/145.860
Oscar 11 27 Aug 21:42:37 21:47:03 76° 255° (WSW) 21:51:25 145.826/435.025
HO-68 27 Aug 21:45:40 21:51:44 30° 242° (WSW) 21:57:47 435.675
FUNcube-1 27 Aug 21:48:46 21:53:25 69° 256° (WSW) 21:58:00 145.935
UWE-3 27 Aug 21:53:57 21:58:17 37° 252° (WSW) 22:02:37 435.000/436.395/437.385
GONETS M04 27 Aug 21:54:31 21:57:34 12° 105° (ESE) 22:00:37
CUBEBUG 2 27 Aug 21:55:11 21:59:04 26° 249° (WSW) 22:02:59 437.445
JAS-2 27 Aug 21:57:00 22:01:28 17° 122° (ESE) 22:05:49 435.910
RS-15 27 Aug 22:00:31 22:11:23 67° 125° (SE) 22:22:21 29.354- 29.394
ANTELSAT 27 Aug 22:08:46 22:13:03 60° 281° (W) 22:17:31 437.575/2403.000
ZACube-1 27 Aug 22:10:08 22:14:27 38° 252° (WSW) 22:18:43 437.345
CUSAT 1 27 Aug 22:10:24 22:14:18 66° 101° (E) 22:17:20 437.405
QB50P1 27 Aug 22:14:41 22:17:50 21° 112° (ESE) 22:21:02 145.935-145.965
BEESAT 2 27 Aug 22:16:53 22:20:47 53° 237° (WSW) 22:24:43 435.950
POPSAT HIP 1 27 Aug 22:24:12 22:27:42 26° 111° (ESE) 22:31:16 437.405
BEESAT 3 27 Aug 22:37:47 22:40:34 18° 229° (SW) 22:43:22 437.485
ISS 27 Aug 22:40:30 22:41:42 11° 197° (SSW) 22:42:54 145.825
TIGRISAT 27 Aug 22:40:37 22:44:21 28° 276° (W) 22:48:12 435.000
AIST 2 27 Aug 22:48:22 22:49:24 11° 73° (ENE) 22:50:25 435.215
DELFI C3 27 Aug 22:51:32 22:54:57 27° 251° (WSW) 22:58:19 145.870
DUCHIFAT 1 27 Aug 22:52:04 22:56:05 48° 107° (ESE) 23:00:11 145.980
QB50P2 27 Aug 22:53:40 22:57:50 62° 105° (ESE) 23:02:05 145.880/145.840
POLYITAN 1 27 Aug 22:56:10 23:00:20 63° 105° (ESE) 23:04:35 437.675
VELOX 1 27 Aug 22:57:50 22:58:34 10° 89° (E) 22:59:17 145.980
DANDE 27 Aug 22:59:44 23:05:10 83° 100° (E) 23:09:06 436.750
CUBEBUG 1 27 Aug 23:00:00 23:02:25 14° 88° (E) 23:04:48 437.445
HUMSAT D 27 Aug 23:02:12 23:06:24 46° 253° (WSW) 23:10:32 437.325/437.525
NANOSAT C BR1 27 Aug 23:05:22 23:09:34 76° 104° (ESE) 23:13:51 145.865
UNISAT 6 27 Aug 23:11:08 23:13:06 13° 271° (W) 23:15:05 437.425
AUBIESAT-1 27 Aug 23:15:21 23:19:08 39° 76° (ENE) 23:23:08 437.475
DX 1 27 Aug 23:16:37 23:17:59 11° 89° (E) 23:19:22 434.975-435.025
Cosmos 2499 27 Aug 23:18:05 23:25:02 39° 94° (E) 23:32:32 435.465 / 435.565
M-CUBED/EXP-1 PRIME 27 Aug 23:20:23 23:24:17 57° 74° (ENE) 23:28:28 437.505
PCSat 27 Aug 23:20:26 23:25:45 60° 67° (ENE) 23:31:07 145.827
ESTCUBE 1 27 Aug 23:32:48 23:37:18 55° 80° (E) 23:41:43 437.505/2401.250
JAS-2 27 Aug 23:37:30 23:45:24 81° 105° (ESE) 23:53:03 435.910
AISAT 27 Aug 23:43:43 23:47:54 39° 81° (E) 23:52:03 437.250
GONETS M04 27 Aug 23:43:59 23:52:45 76° 86° (E) 00:01:33
QB50P1 27 Aug 23:49:40 23:53:24 30° 277° (W) 23:57:11 145.935-145.965
BUGSAT 1 27 Aug 23:49:42 23:53:45 85° 280° (W) 23:57:52 437.445
50 SAT 27 Aug 23:51:13 23:54:48 45° 81° (E) 23:58:18 437.505
UKube-1 27 Aug 23:56:14 23:59:54 25° 84° (E) 00:03:30 .
POPSAT HIP 1 27 Aug 23:59:59 00:03:25 24° 275° (W) 00:06:54 437.405
Gurwin Techsat 1B 28 Aug 00:11:45 00:14:34 15° 118° (ESE) 00:17:24 435.225
RS-15 28 Aug 00:13:50 00:22:52 32° 285° (WNW) 00:32:05 29.354- 29.394
AIST 2 28 Aug 00:23:11 00:27:19 62° 237° (WSW) 00:31:30 435.215
JUGNU 28 Aug 00:28:18 00:30:53 13° 1° (N) 00:33:28 437.505
DUCHIFAT 1 28 Aug 00:30:12 00:32:02 13° 272° (W) 00:33:53 145.980
VELOX 1 28 Aug 00:30:59 00:35:24 63° 254° (WSW) 00:39:47 145.980
CUBEBUG 1 28 Aug 00:34:43 00:38:54 45° 252° (WSW) 00:43:04 437.445
Oscar 19 28 Aug 00:42:23 00:47:29 60° 107° (ESE) 00:52:37 437.125/150
DX 1 28 Aug 00:50:11 00:54:31 57° 254° (WSW) 00:58:47 434.975-435.025
AUBIESAT-1 28 Aug 00:50:48 00:53:20 16° 244° (WSW) 00:55:57 437.475
SPROUT 28 Aug 00:54:38 00:58:58 66° 255° (WSW) 01:03:15 437.525
M-CUBED/EXP-1 PRIME 28 Aug 00:57:01 00:58:27 12° 242° (WSW) 00:59:53 437.505
PCSat 28 Aug 01:05:37 01:09:34 20° 229° (SW) 01:13:32 145.827
Cosmos 2499 28 Aug 01:10:59 01:18:03 39° 254° (WSW) 01:25:45 435.465 / 435.565
ESTCUBE 1 28 Aug 01:11:17 01:13:35 14° 244° (WSW) 01:15:52 437.505/2401.250
TISAT 1 28 Aug 01:15:42 01:19:47 41° 81° (E) 01:23:49 437.305
O/OREOS (USA 219) 28 Aug 01:16:39 01:21:05 49° 74° (ENE) 01:25:33 437.305
AO-85 28 Aug 01:16:52 01:21:07 27° 130° (SE) 01:25:35 145.980
AISAT 28 Aug 01:21:01 01:24:03 18° 246° (WSW) 01:27:04 437.250
JAS-2 28 Aug 01:25:38 01:30:56 19° 270° (W) 01:36:11 435.910
50 SAT 28 Aug 01:26:58 01:27:55 11° 245° (WSW) 01:28:51 437.505
UKube-1 28 Aug 01:32:14 01:35:50 26° 249° (WSW) 01:39:25 .
ITUPSAT 1 28 Aug 01:38:01 01:40:20 13° 89° (E) 01:42:38 437.325
GONETS M04 28 Aug 01:44:03 01:50:26 22° 247° (WSW) 01:56:53
Gurwin Techsat 1B 28 Aug 01:48:32 01:53:51 71° 282° (WNW) 01:59:15 435.225
ISS 28 Aug 01:54:50 01:57:06 17° 156° (SSE) 01:59:21 145.825
ITAMSAT 1 28 Aug 01:55:37 02:00:30 41° 110° (ESE) 02:05:26 435.822/435.867
SRMSAT 28 Aug 02:04:26 02:06:57 13° 5° (N) 02:09:28 437.500
AO-7 28 Aug 02:08:27 02:16:00 41° 118° (ESE) 02:23:37 29.400- 29.500
SWISSCUBE 28 Aug 02:09:39 02:14:03 33° 83° (E) 02:18:22 437.505
JUGNU 28 Aug 02:17:56 02:19:01 10° 350° (N) 02:20:05 437.505
Oscar 19 28 Aug 02:24:19 02:27:10 15° 271° (W) 02:30:01 437.125/150
BEESAT 28 Aug 02:26:37 02:31:18 45° 81° (E) 02:35:54 436.000
TISAT 1 28 Aug 02:52:27 02:55:03 16° 246° (WSW) 02:57:38 437.305
AO-85 28 Aug 02:56:54 03:01:43 42° 295° (WNW) 03:06:44 145.980
O/OREOS (USA 219) 28 Aug 02:57:49 03:00:46 17° 237° (WSW) 03:03:44 437.305
ITUPSAT 1 28 Aug 03:13:43 03:18:31 59° 253° (WSW) 03:23:15 437.325
ISS 28 Aug 03:30:34 03:33:54 76° 317° (NW) 03:37:12 145.825
ITAMSAT 1 28 Aug 03:36:01 03:40:04 22° 274° (W) 03:44:10 435.822/435.867
YUBILEINY 28 Aug 03:46:17 03:52:37 21° 114° (ESE) 03:58:55 435.215
SWISSCUBE 28 Aug 03:47:45 03:51:38 24° 247° (WSW) 03:55:29 437.505
SRMSAT 28 Aug 03:52:51 03:55:15 12° 354° (N) 03:57:40 437.500
